Location: Beaver Dam Church
(34.5318°N, 88.9828°W)
Time: 09:36:16
(UTC+00:00)

H-2A R/B - Pass Details

Date: 29 October 2020
Orbit: 577 x 656 km, 98.5° (Epoch: 25 November)

Event Time Altitude Azimuth Distance (km) Brightness Sun altitude
Rises 23:31:35 0° 359° (N) 2,817 5.3 -6.2°
Reaches altitude 10° 23:33:59 10° 347° (NNW) 1,905 4.6 -6.7°
Maximum altitude 23:37:26 27° 290° (WNW) 1,133 4.2 -7.4°
Drops below altitude 10° 23:40:52 10° 232° (SW) 1,882 5.7 -8.1°
Sets 23:43:14 0° 220° (SW) 2,776 6.3 -8.5°
